Weather History for Salina, KS

Change the Weather History Date:

Wednesday, May 9, 2012

  Actual Average Record
Temperature  
Mean Temperature 60 °F 63 °F  
Max Temperature 77 °F 74 °F 101 °F (2011)
Min Temperature 42 °F 52 °F 28 °F (1923)
Degree Days  
Heating Degree Days 5 4  
Month to date heating degree days 15 46  
Since 1 July heating degree days 4059 4814  
Cooling Degree Days 0 2  
Month to date cooling degree days 63 15  
Year to date cooling degree days 138 40  
Growing Degree Days 10 (Base 50)    
Moisture  
Dew Point 40 °F    
Average Humidity 51    
Maximum Humidity 76    
Minimum Humidity 26    
Precipitation  
Precipitation 0.00 in 0.14 in 1.68 in (1981)
Month to date precipitation T 1.17  
Year to date precipitation 6.97 8.41  
Sea Level Pressure  
Sea Level Pressure 30.04 in    
Wind  
Wind Speed 5 mph (ENE)    
Max Wind Speed 12 mph    
Max Gust Speed 17 mph    
Visibility 10 miles    
Events      
T = Trace of Precipitation, MM = Missing Value Source: NWS Daily Summary

Daily Weather History Graph

Daily Weather History Graph

Search for Another Location

Airport:

Trip Planner

Search our weather history database for the weather conditions in past years. The results will help you decide how hot, cold, wet, or windy it might be!

Date:

Astronomy

May. 09, 2012 Rise Set
Actual Time 6:23 AM CDT 8:31 PM CDT
Civil Twilight 5:54 AM CDT 9:00 PM CDT
Nautical Twilight 5:18 AM CDT 9:36 PM CDT
Astronomical Twilight 4:38 AM CDT 10:16 PM CDT
Moon No Moon Rise 9:40 AM CDT (5/9)
Length of Visible Light 15h 06m
Length of Day
14h 07m
Waning Gibbous, 82% of the Moon is Illuminated
May 9
Waning Gibbous
May 12
Last Quarter
May 20
New
May 28
First Quarter
Jun 4
Full

Hourly Weather History & Observations

Time (CDT) Temp. Windchill Dew Point Humidity Pressure Visibility Wind Dir Wind Speed Gust Speed Precip Events Conditions
12:53 AM 54.0 °F - 35.1 °F 49% 30.08 in 10.0 mi Calm Calm - N/A   Clear
1:53 AM 50.0 °F - 36.0 °F 59% 30.09 in 10.0 mi NNW 3.5 mph - N/A   Clear
2:53 AM 46.9 °F - 36.0 °F 66% 30.09 in 10.0 mi Calm Calm - N/A   Clear
3:53 AM 46.9 °F - 36.0 °F 66% 30.10 in 10.0 mi NNW 4.6 mph - N/A   Clear
4:53 AM 45.0 °F 43.5 °F 36.0 °F 71% 30.11 in 10.0 mi NNW 3.5 mph - N/A   Clear
5:53 AM 43.0 °F 40.3 °F 36.0 °F 76% 30.11 in 10.0 mi WNW 4.6 mph - N/A   Clear
6:53 AM 44.1 °F 42.5 °F 36.0 °F 73% 30.13 in 10.0 mi NW 3.5 mph - N/A   Clear
7:53 AM 48.9 °F - 39.0 °F 69% 30.13 in 10.0 mi NNW 3.5 mph - N/A   Clear
8:53 AM 55.0 °F - 41.0 °F 59% 30.13 in 10.0 mi North 3.5 mph - N/A   Clear
9:53 AM 60.1 °F - 42.1 °F 51% 30.12 in 10.0 mi East 4.6 mph - N/A   Clear
10:53 AM 64.9 °F - 42.1 °F 43% 30.12 in 10.0 mi Variable 4.6 mph - N/A   Clear
11:53 AM 66.9 °F - 41.0 °F 39% 30.11 in 10.0 mi East 6.9 mph - N/A   Clear
12:53 PM 70.0 °F - 42.1 °F 36% 30.09 in 10.0 mi Variable 3.5 mph - N/A   Clear
1:53 PM 73.0 °F - 39.0 °F 29% 30.06 in 10.0 mi Variable 4.6 mph - N/A   Clear
2:53 PM 73.9 °F - 39.9 °F 29% 30.04 in 10.0 mi NE 5.8 mph - N/A   Clear
3:53 PM 75.0 °F - 39.9 °F 28% 30.01 in 10.0 mi East 4.6 mph - N/A   Clear
4:53 PM 75.0 °F - 39.0 °F 27% 29.98 in 10.0 mi Variable 3.5 mph - N/A   Clear
5:53 PM 77.0 °F - 39.9 °F 26% 29.96 in 10.0 mi Calm Calm - N/A   Clear
6:53 PM 73.9 °F - 41.0 °F 30% 29.94 in 10.0 mi SSE 9.2 mph - N/A   Clear
7:53 PM 71.1 °F - 43.0 °F 36% 29.93 in 10.0 mi SE 8.1 mph - N/A   Clear
8:53 PM 64.9 °F - 45.0 °F 48% 29.93 in 10.0 mi SE 8.1 mph - N/A   Clear
9:53 PM 57.9 °F - 45.0 °F 62% 29.94 in 10.0 mi SSE 8.1 mph - N/A   Clear
10:53 PM 57.9 °F - 45.0 °F 62% 29.94 in 10.0 mi SE 8.1 mph - N/A   Clear
11:53 PM 57.0 °F - 45.0 °F 64% 29.92 in 10.0 mi SE 8.1 mph - N/A   Clear